Wind_Speed
36 36 36 36 37 37 37 37 38 36 36 34 36 37 37 36 36 36 37 37 37 37 38 38 38 39 39 40 40 40 40 41 41 42 42 43 43 43 43 44 44 44 43 43
39 39 40 40 39 39 39 39 40 40 39 37 39 40 40 39 39 38 38 38 38 39 40 39 39 40 40 41 41 41 42 42 43 43 44 44 44 44 44 45 45 45 45 45
42 42 43 43 40 40 41 41 41 42 41 41 41 42 42 42 41 40 40 40 40 41 42 42 42 42 43 43 44 44 44 44 44 45 45 46 46 46 46 46 47 47 47 47
44 44 46 44 43 42 42 41 41 42 41 41 42 42 43 43 43 42 42 42 42 43 43 43 43 44 44 45 45 45 45 45 45 45 46 46 47 48 48 49 49 49 49 49
45 46 47 44 43 42 43 42 41 41 41 42 42 43 42 42 43 43 43 43 42 43 43 43 43 44 45 45 46 46 46 47 46 46 47 47 48 49 49 50 51 51 52 52
45 46 47 44 42 42 43 43 42 42 42 42 43 43 41 42 42 42 42 42 42 43 43 44 44 44 45 46 46 47 47 48 48 48 49 49 50 51 52 52 53 53 53 54
45 46 46 44 43 43 43 43 43 43 43 43 43 43 42 41 42 42 42 43 43 43 43 44 45 45 46 46 47 48 49 49 50 50 51 51 51 52 53 54 54 55 55 55
45 46 46 43 44 45 45 44 44 45 44 44 43 42 42 42 42 42 43 43 44 45 45 45 46 47 47 47 48 50 50 51 51 52 52 53 53 54 54 55 55 56 56 56
45 46 45 44 45 45 46 46 45 45 45 45 44 44 43 43 43 43 44 44 45 46 46 47 48 49 49 49 50 51 52 53 53 54 54 55 55 55 55 55 56 56 56 56
45 45 44 44 45 46 46 45 45 45 46 46 46 46 46 46 45 44 44 45 46 47 47 47 48 50 51 52 53 54 54 54 54 54 54 54 54 54 55 55 55 55 55 54
45 44 44 44 45 45 45 45 45 45 46 46 47 46 46 46 46 46 47 47 47 47 47 48 49 50 51 52 53 53 53 53 53 53 53 53 53 53 54 54 54 54 53 53
44 43 44 43 43 43 44 44 44 45 45 45 45 46 46 46 46 46 47 47 47 48 48 48 49 49 50 51 51 51 52 52 53 53 53 54 54 54 54 54 53 53 52 51
44 43 43 42 42 42 43 43 42 42 43 43 43 44 45 45 46 46 46 46 46 46 47 48 49 49 49 50 50 51 52 52 52 52 53 53 53 53 52 51 50 50 49 48
42 42 41 41 41 41 41 41 41 41 41 42 42 42 42 43 43 44 44 45 45 45 46 47 47 48 48 49 49 49 50 50 51 51 51 50 49 49 48 47 46 46 45 45
40 40 41 40 40 40 40 40 40 40 40 40 40 40 40 41 41 42 42 43 44 44 44 45 45 46 46 47 48 48 48 47 48 48 47 47 46 46 46 45 45 44 43 43
39 39 39 39 39 39 38 39 38 38 38 38 38 39 40 40 40 40 40 41 42 42 43 44 45 45 46 46 47 46 45 45 45 45 45 45 45 44 44 43 43 43 42 42
36 36 36 37 37 37 38 38 38 38 38 38 37 38 38 38 38 39 40 41 42 43 43 44 45 45 45 45 45 45 44 43 43 43 43 43 43 43 42 42 42 42 42 41
33 33 34 34 35 35 36 36 36 36 36 36 36 37 37 37 38 39 39 40 41 42 42 43 43 43 43 44 44 44 43 43 43 43 42 42 41 41 41 41 41 41 40 40
31 31 31 32 32 33 33 34 34 34 34 34 35 35 36 37 38 39 39 40 40 40 40 41 42 42 42 42 42 42 42 42 41 41 41 40 40 40 39 39 39 39 38 38
31 31 31 31 31 32 33 33 33 33 33 34 34 34 34 35 36 38 38 38 38 39 39 39 39 39 39 39 39 39 39 39 39 39 39 38 38 37 37 37 37 37 36 36
30 30 30 31 32 32 33 33 33 32 32 33 34 34 34 35 36 36 36 36 35 37 36 36 35 35 35 36 36 36 36 36 36 35 35 35 35 35 35 35 35 34 34 34
31 31 31 31 31 32 32 33 33 33 33 34 34 35 35 34 34 34 34 34 32 33 33 32 31 32 32 32 32 33 33 33 33 32 32 31 31 32 32 32 31 31 31 31
31 31 31 31 31 31 31 32 32 32 33 33 34 34 34 34 34 33 32 31 30 30 29 28 29 29 30 30 30 29 29 29 28 28 28 28 28 28 28 28 28 28 28 28
30 30 31 31 31 31 31 31 31 31 31 32 32 32 33 33 32 31 30 29 29 28 28 28 28 29 28 28 27 27 26 25 25 25 25 25 25 25 25 24 24 24 24 24
31 31 31 31 30 30 30 29 29 29 29 30 30 30 30 30 28 28 28 28 27 28 27 27 27 27 26 26 25 24 24 23 22 22 22 22 22 21 21 20 20 20 20 21
31 31 31 30 30 29 29 29 28 28 29 29 28 28 28 27 27 26 26 26 26 26 25 25 25 24 24 24 23 22 21 20 20 20 19 19 18 18 18 18 18 18 18 18
30 30 30 29 29 29 28 28 28 28 28 28 27 26 26 25 25 25 25 25 24 24 23 23 22 22 21 21 21 20 19 18 18 17 17 16 16 16 17 17 17 17 17 16
Wind_Direction
274 274 273 274 274 273 273 274 274 273 271 270 268 266 266 266 266 266 266 265 264 263 262 262 261 262 262 262 262 262 262 263 263 264 264 264 264 265 266 267 267 268 269 269
273 273 272 272 273 273 273 274 273 272 271 270 268 268 267 267 266 266 266 266 265 264 263 262 262 261 262 262 262 263 263 263 263 264 264 264 264 265 266 266 267 268 268 269
274 273 273 272 274 273 274 274 273 273 272 270 269 269 268 268 267 267 266 265 265 263 263 263 262 261 261 262 262 263 264 264 264 264 264 264 264 265 265 266 267 268 268 269
275 274 273 275 274 273 273 272 272 272 272 271 270 269 269 268 268 266 266 265 265 263 262 262 263 263 262 262 263 264 264 264 264 264 265 265 266 266 266 267 268 269 269 270
275 275 275 274 274 274 273 273 273 273 273 272 271 270 269 268 267 266 266 266 265 264 262 262 262 263 263 263 264 264 265 265 265 266 266 267 267 267 267 268 269 270 270 271
274 275 275 275 273 273 273 273 272 273 273 273 272 271 270 268 267 267 266 266 265 264 263 262 263 263 264 264 265 265 265 265 266 267 268 268 269 269 269 270 270 270 271 271
272 273 274 274 272 272 272 273 273 273 273 273 272 271 270 269 267 266 266 266 265 265 264 263 263 264 265 266 266 266 266 267 267 268 269 270 270 270 271 271 271 272 272 272
271 271 273 273 272 271 271 271 272 273 273 272 271 271 270 269 268 267 267 266 266 266 265 264 264 266 266 267 267 267 267 268 269 269 269 270 270 271 271 272 272 272 272 272
270 271 273 273 273 272 271 271 271 272 272 272 272 271 270 269 268 267 266 265 266 266 265 264 265 266 266 267 268 269 269 269 270 270 270 270 271 271 272 272 272 272 272 272
270 271 271 272 272 272 272 271 271 271 271 271 271 271 271 270 269 268 267 266 266 266 266 265 265 266 267 268 269 270 270 271 271 271 271 271 271 271 272 272 273 272 272 272
271 272 271 271 272 273 273 271 272 272 272 272 272 271 270 269 269 269 269 269 269 269 268 267 267 268 268 269 270 271 271 271 271 271 271 271 271 271 272 272 272 272 272 271
272 272 271 272 273 274 273 273 272 271 271 271 271 271 270 269 269 268 268 269 270 270 269 269 269 269 269 270 271 271 271 271 271 272 271 271 271 271 271 271 271 272 272 272
272 272 273 274 275 275 274 273 272 271 271 271 271 272 271 270 269 269 269 270 271 270 270 269 270 270 270 270 271 272 272 272 272 272 273 273 273 273 272 271 271 271 271 270
273 273 273 273 274 274 273 272 271 270 270 270 271 272 272 271 270 270 270 271 271 271 271 270 270 271 271 271 272 273 273 274 274 274 274 274 273 272 271 270 269 269 269 269
273 272 273 275 275 274 272 271 271 270 270 270 270 271 272 271 272 272 272 272 272 273 273 272 271 271 272 272 273 274 274 275 275 274 274 273 273 271 270 269 269 268 268 268
272 272 273 274 274 273 271 270 270 271 271 271 271 271 272 274 274 273 273 273 273 273 273 273 273 273 272 272 273 274 275 275 275 275 274 274 273 271 270 269 268 268 267 267
276 275 274 273 272 273 272 271 271 272 272 271 271 272 274 275 274 274 274 274 274 274 275 275 274 273 273 273 274 274 275 275 275 275 275 274 272 270 269 268 268 268 267 266
278 277 275 274 273 273 273 274 274 273 272 271 271 273 274 275 276 275 274 274 274 275 276 275 275 274 273 273 274 275 275 275 275 275 274 274 272 270 268 268 269 268 267 266
278 277 276 275 276 275 275 276 276 275 275 274 274 275 276 277 277 277 276 276 277 277 276 275 274 275 275 274 274 275 275 275 274 274 273 272 271 269 268 268 269 268 267 265
279 279 278 278 279 279 279 279 278 278 277 276 277 277 278 278 278 278 277 277 277 276 276 276 275 275 275 274 275 275 275 275 274 273 272 271 270 268 267 267 267 266 264 264
280 280 280 281 282 282 281 281 280 279 277 277 278 279 279 279 279 279 279 278 277 276 277 277 276 275 275 276 276 276 276 275 275 273 272 271 269 267 267 266 265 263 262 262
281 282 283 283 283 282 282 282 281 280 279 279 279 279 280 280 280 280 281 280 278 276 276 277 277 277 277 277 277 277 276 276 275 273 271 270 268 267 266 265 263 262 260 260
285 284 284 284 283 283 283 283 283 281 280 280 280 280 281 281 281 281 280 279 278 277 277 277 278 278 278 277 277 278 278 276 273 271 270 269 268 266 264 262 261 260 259 258
285 285 285 284 284 284 284 283 282 282 282 281 281 281 282 281 280 279 279 278 277 277 277 278 279 278 277 277 278 278 276 273 271 270 269 268 266 264 262 259 258 257 256 253
284 284 283 283 283 284 284 283 283 283 284 283 282 282 283 282 280 278 278 278 277 277 278 279 279 278 276 277 278 277 274 272 270 269 269 266 263 260 257 254 253 253 251 249
285 284 284 284 284 284 284 284 284 284 284 284 284 283 282 281 280 280 280 280 278 278 279 279 279 278 277 276 276 275 272 270 268 269 268 264 258 254 251 250 249 249 248 245
285 284 284 283 283 283 284 285 285 285 285 285 285 283 281 280 280 282 283 282 279 279 279 279 280 279 278 275 273 270 269 269 268 267 265 258 252 250 249 249 248 247 245 241
Height
5647 5646 5645 5644 5644 5644 5642 5642 5641 5642 5642 5643 5640 5640 5639 5639 5639 5639 5639 5639 5638 5638 5638 5638 5639 5639 5639 5639 5640 5640 5640 5641 5641 5642 5642 5642 5643 5643 5644 5644 5645 5645 5645 5645
5636 5635 5633 5633 5633 5632 5631 5630 5629 5629 5630 5630 5628 5627 5628 5628 5627 5627 5627 5627 5627 5627 5627 5627 5627 5627 5627 5627 5628 5628 5628 5629 5629 5629 5630 5630 5630 5631 5631 5631 5632 5632 5633 5633
5623 5622 5620 5621 5622 5620 5619 5619 5617 5616 5618 5616 5616 5615 5615 5615 5615 5615 5615 5615 5614 5614 5614 5614 5614 5615 5615 5615 5615 5615 5616 5616 5616 5616 5617 5617 5617 5618 5618 5618 5619 5619 5619 5619
5608 5608 5607 5611 5608 5607 5605 5605 5604 5603 5603 5603 5602 5602 5601 5601 5601 5601 5602 5602 5601 5601 5601 5601 5601 5601 5602 5602 5602 5602 5602 5602 5602 5602 5603 5603 5603 5604 5604 5604 5604 5605 5605 5605
5595 5593 5593 5596 5595 5593 5591 5591 5591 5589 5590 5589 5588 5588 5588 5588 5587 5587 5588 5588 5588 5587 5587 5588 5588 5588 5588 5588 5588 5588 5588 5588 5588 5588 5589 5589 5589 5589 5589 5589 5589 5589 5589 5589
5581 5579 5579 5583 5581 5579 5578 5578 5578 5576 5576 5575 5574 5575 5576 5574 5573 5573 5573 5574 5574 5574 5574 5574 5574 5574 5574 5574 5574 5574 5574 5574 5574 5574 5574 5574 5574 5574 5574 5573 5574 5574 5573 5573
5567 5564 5565 5568 5567 5565 5566 5566 5564 5563 5562 5562 5561 5561 5561 5560 5560 5560 5560 5560 5560 5560 5560 5560 5559 5559 5560 5560 5560 5559 5559 5559 5559 5559 5559 5558 5558 5558 5557 5557 5557 5557 5557 5557
5553 5551 5554 5554 5552 5552 5551 5550 5549 5548 5548 5548 5547 5547 5547 5546 5546 5546 5546 5546 5545 5545 5545 5545 5545 5545 5545 5545 5544 5544 5544 5544 5544 5543 5543 5542 5542 5542 5541 5540 5540 5540 5540 5540
5540 5541 5540 5539 5537 5536 5536 5536 5535 5534 5534 5534 5533 5533 5533 5532 5532 5532 5531 5531 5531 5530 5530 5530 5530 5529 5530 5529 5528 5528 5528 5528 5527 5526 5526 5525 5525 5525 5524 5523 5523 5523 5522 5522
5525 5526 5526 5524 5523 5522 5521 5521 5521 5520 5520 5519 5519 5519 5518 5518 5518 5517 5517 5516 5515 5515 5515 5515 5514 5514 5513 5513 5512 5512 5511 5511 5510 5510 5509 5508 5508 5507 5507 5506 5506 5505 5505 5505
5511 5512 5511 5511 5509 5508 5507 5506 5506 5505 5505 5504 5504 5504 5504 5503 5503 5502 5502 5501 5500 5500 5500 5499 5499 5498 5497 5496 5495 5495 5494 5494 5493 5492 5492 5491 5491 5490 5490 5490 5488 5488 5488 5487
5497 5498 5496 5497 5496 5494 5493 5492 5491 5491 5491 5490 5489 5489 5488 5488 5487 5487 5487 5486 5485 5485 5484 5484 5483 5483 5481 5480 5479 5478 5478 5477 5476 5475 5474 5474 5473 5473 5472 5472 5471 5470 5470 5470
5483 5483 5482 5482 5482 5480 5479 5478 5477 5477 5476 5476 5475 5474 5473 5472 5472 5472 5471 5471 5470 5469 5469 5468 5467 5467 5465 5464 5463 5462 5461 5460 5459 5458 5457 5456 5456 5455 5455 5456 5455 5454 5453 5453
5470 5469 5469 5469 5468 5467 5465 5464 5463 5463 5462 5461 5461 5460 5459 5458 5457 5457 5456 5455 5455 5454 5453 5452 5451 5451 5449 5448 5447 5446 5445 5444 5442 5441 5441 5440 5439 5438 5438 5438 5439 5439 5439 5438
5457 5456 5455 5455 5454 5453 5451 5450 5450 5449 5449 5448 5447 5446 5445 5444 5443 5443 5442 5441 5440 5439 5438 5437 5436 5436 5434 5433 5432 5431 5430 5429 5427 5426 5425 5424 5424 5423 5423 5423 5423 5424 5424 5424
5444 5443 5442 5441 5441 5440 5438 5438 5437 5436 5436 5435 5434 5433 5432 5431 5430 5429 5428 5427 5426 5425 5424 5423 5422 5420 5419 5418 5417 5416 5415 5414 5412 5411 5410 5410 5409 5408 5408 5408 5409 5409 5410 5410
5432 5431 5430 5429 5428 5427 5426 5425 5425 5424 5423 5422 5421 5420 5419 5418 5417 5416 5415 5413 5412 5411 5410 5408 5407 5405 5404 5403 5402 5401 5401 5400 5398 5397 5396 5395 5394 5394 5394 5394 5395 5395 5396 5396
5420 5419 5418 5417 5416 5415 5414 5413 5412 5411 5410 5409 5408 5407 5406 5405 5404 5403 5402 5400 5399 5398 5396 5394 5392 5391 5390 5389 5387 5387 5386 5385 5384 5382 5382 5381 5380 5380 5380 5380 5381 5381 5382 5382
5409 5408 5407 5406 5405 5404 5403 5402 5400 5399 5398 5397 5396 5395 5394 5392 5391 5390 5388 5387 5385 5384 5383 5380 5378 5377 5376 5375 5373 5372 5372 5370 5369 5368 5368 5367 5367 5366 5367 5367 5367 5367 5368 5369
5399 5398 5397 5395 5394 5393 5391 5390 5388 5387 5386 5385 5384 5383 5382 5380 5378 5377 5375 5374 5372 5370 5368 5367 5365 5364 5363 5362 5360 5359 5358 5357 5356 5355 5354 5354 5353 5354 5354 5354 5354 5355 5356 5357
5389 5388 5386 5385 5384 5382 5380 5379 5377 5376 5375 5373 5372 5371 5370 5368 5367 5364 5362 5361 5360 5357 5355 5354 5353 5352 5350 5349 5348 5346 5345 5344 5343 5342 5342 5342 5342 5342 5342 5342 5343 5343 5344 5345
5379 5377 5376 5374 5373 5371 5370 5368 5366 5365 5363 5362 5360 5359 5358 5356 5355 5352 5350 5349 5348 5346 5344 5342 5341 5340 5339 5337 5336 5335 5334 5332 5332 5331 5331 5330 5330 5331 5331 5331 5332 5333 5333 5334
5368 5366 5365 5363 5362 5360 5359 5357 5355 5353 5352 5351 5349 5348 5346 5344 5342 5341 5340 5338 5336 5335 5333 5332 5331 5329 5328 5326 5325 5324 5323 5322 5321 5320 5320 5320 5320 5320 5321 5321 5322 5323 5324 5325
5358 5356 5354 5353 5351 5349 5348 5346 5344 5342 5341 5339 5338 5336 5334 5333 5331 5330 5328 5328 5326 5325 5323 5323 5321 5319 5317 5316 5315 5314 5313 5312 5311 5311 5311 5311 5311 5311 5312 5312 5313 5314 5315 5316
5347 5346 5344 5342 5340 5339 5337 5335 5334 5332 5330 5329 5328 5326 5324 5322 5320 5320 5318 5318 5316 5315 5314 5313 5311 5309 5308 5307 5306 5305 5304 5304 5303 5303 5303 5303 5303 5303 5304 5305 5305 5307 5308 5309
5337 5335 5333 5332 5330 5328 5327 5325 5324 5322 5320 5319 5317 5316 5314 5312 5311 5310 5309 5308 5307 5305 5304 5303 5302 5300 5299 5298 5297 5297 5296 5296 5296 5295 5295 5295 5296 5297 5298 5299 5300 5301 5302 5303
5326 5324 5323 5321 5320 5318 5317 5315 5314 5312 5310 5309 5307 5306 5305 5303 5302 5301 5300 5299 5298 5297 5296 5294 5293 5292 5291 5290 5289 5289 5289 5289 5289 5289 5289 5289 5290 5291 5292 5293 5294 5296 5297 5298